Weather History for KLUX - December, 2013

Change the Weather History Date:

Thursday, December 19, 2013

  Actual Average (KGSP) Record (KGSP)
Temperature  
Mean Temperature 47 °F 43 °F  
Max Temperature 62 °F 53 °F 74 °F (2006)
Min Temperature 32 °F 33 °F 11 °F (1975)
Degree Days  
Heating Degree Days 18 22  
Month to date heating degree days 381  
Since 1 July heating degree days 934  
Cooling Degree Days 0 0  
Month to date cooling degree days 0  
Year to date cooling degree days 1715  
Moisture  
Dew Point 25 °F    
Average Humidity 48    
Maximum Humidity 80    
Minimum Humidity 18    
Precipitation  
Precipitation 0.00 in 0.13 in 1.12 in (1939)
Month to date precipitation 2.61  
Year to date precipitation 45.69  
Snow  
Snow 0.00 in 0.00 in 2.50 in (1916)
Month to date snowfall 0.1  
Since 1 July snowfall 0.2  
Snow Depth -    
Sea Level Pressure  
Sea Level Pressure 30.29 in    
Wind  
Wind Speed 5 mph (SSW)    
Max Wind Speed 12 mph    
Max Gust Speed -    
Visibility 10 miles    
Events      
T = Trace of Precipitation, MM = Missing Value Source: NWS Daily Summary

Daily Weather History Graph

Daily Weather History Graph

Search for Another Location

Airport or City:

Trip Planner

Search our weather history database for the weather conditions in past years. The results will help you decide how hot, cold, wet, or windy it might be!

Date:

Astronomy

Dec. 19, 2013 Rise Set
Actual Time 7:29 AM EST 5:20 PM EST
Civil Twilight 7:01 AM EST 5:48 PM EST
Nautical Twilight 6:30 AM EST 6:19 PM EST
Astronomical Twilight 5:59 AM EST 6:50 PM EST
Moon 7:40 PM EST (12/19) 8:52 AM EST (12/19)
Length of Visible Light 10h 46m
Length of Day
9h 50m
Waning Gibbous, 95% of the Moon is Illuminated
Dec 19
Waning Gibbous
Dec 25
Last Quarter
Jan 1
New
Jan 7
First Quarter
Jan 15
Full

Hourly Weather History & Observations

Time (EST) Temp. Windchill Dew Point Humidity Pressure Visibility Wind Dir Wind Speed Gust Speed Precip Events Conditions
12:15 AM 37.4 °F 33.8 °F 26.6 °F 65% 30.30 in 10.0 mi WSW 4.6 mph - N/A   Clear
12:35 AM 37.4 °F 33.8 °F 26.6 °F 65% 30.30 in 10.0 mi WSW 4.6 mph - N/A   Clear
12:55 AM 37.4 °F 32.8 °F 26.6 °F 65% 30.30 in 10.0 mi SW 5.8 mph - N/A   Clear
1:15 AM 35.6 °F 30.7 °F 26.6 °F 70% 30.30 in 10.0 mi SW 5.8 mph - N/A   Clear
1:35 AM 37.4 °F 33.8 °F 24.8 °F 60% 30.30 in 10.0 mi WSW 4.6 mph - N/A   Clear
1:55 AM 35.6 °F 31.7 °F 26.6 °F 70% 30.29 in 10.0 mi SW 4.6 mph - N/A   Clear
2:15 AM 35.6 °F 31.7 °F 26.6 °F 70% 30.29 in 10.0 mi SW 4.6 mph - N/A   Clear
2:35 AM 37.4 °F 33.8 °F 23.0 °F 56% 30.30 in 10.0 mi SSW 4.6 mph - N/A   Clear
2:55 AM 35.6 °F 31.7 °F 24.8 °F 65% 30.30 in 10.0 mi SSW 4.6 mph - N/A   Clear
3:15 AM 35.6 °F 31.7 °F 24.8 °F 65% 30.30 in 10.0 mi SSW 4.6 mph - N/A   Clear
3:35 AM 35.6 °F 30.7 °F 24.8 °F 65% 30.30 in 10.0 mi SW 5.8 mph - N/A   Clear
3:55 AM 35.6 °F 30.7 °F 24.8 °F 65% 30.30 in 10.0 mi SW 5.8 mph - N/A   Clear
4:15 AM 35.6 °F 30.7 °F 26.6 °F 70% 30.30 in 10.0 mi SW 5.8 mph - N/A   Clear
4:35 AM 35.6 °F 31.7 °F 26.6 °F 70% 30.31 in 10.0 mi SW 4.6 mph - N/A   Clear
4:55 AM 33.8 °F 29.6 °F 26.6 °F 75% 30.31 in 10.0 mi SSW 4.6 mph - N/A   Clear
5:15 AM 33.8 °F 29.6 °F 26.6 °F 75% 30.32 in 10.0 mi SSW 4.6 mph - N/A   Clear
5:35 AM 33.8 °F 29.6 °F 26.6 °F 75% 30.32 in 10.0 mi SSW 4.6 mph - N/A   Clear
5:55 AM 33.8 °F 29.6 °F 26.6 °F 75% 30.32 in 10.0 mi SSW 4.6 mph - N/A   Clear
6:15 AM 33.8 °F 28.6 °F 26.6 °F 75% 30.33 in 10.0 mi SW 5.8 mph - N/A   Clear
6:35 AM 32.0 °F 27.5 °F 26.6 °F 80% 30.32 in 10.0 mi SSW 4.6 mph - N/A   Clear
6:55 AM 32.0 °F 27.5 °F 26.6 °F 80% 30.33 in 10.0 mi SSW 4.6 mph - N/A   Clear
7:15 AM 32.0 °F 26.4 °F 26.6 °F 80% 30.33 in 10.0 mi SSW 5.8 mph - N/A   Clear
7:35 AM 32.0 °F 28.7 °F 26.6 °F 80% 30.34 in 10.0 mi SW 3.5 mph - N/A   Clear
7:55 AM 33.8 °F 28.6 °F 26.6 °F 75% 30.34 in 10.0 mi SW 5.8 mph - N/A   Clear
8:15 AM 33.8 °F 30.8 °F 26.6 °F 75% 30.34 in 10.0 mi SSW 3.5 mph - N/A   Clear
8:35 AM 35.6 °F 31.7 °F 26.6 °F 70% 30.34 in 10.0 mi SSW 4.6 mph - N/A   Clear
8:55 AM 39.2 °F 35.0 °F 28.4 °F 65% 30.34 in 10.0 mi SW 5.8 mph - N/A   Clear
9:15 AM 42.8 °F 38.6 °F 28.4 °F 57% 30.34 in 10.0 mi SW 6.9 mph - N/A   Clear
9:35 AM 44.6 °F 40.7 °F 26.6 °F 49% 30.35 in 10.0 mi SSW 6.9 mph - N/A   Clear
9:55 AM 46.4 °F 43.5 °F 26.6 °F 46% 30.36 in 10.0 mi SSW 5.8 mph - N/A   Clear
10:15 AM 48.2 °F - 26.6 °F 43% 30.36 in 10.0 mi SW 5.8 mph - N/A   Clear
10:35 AM 51.8 °F - 26.6 °F 38% 30.36 in 10.0 mi SSW 5.8 mph - N/A   Clear
10:55 AM 53.6 °F - 21.2 °F 28% 30.36 in 10.0 mi WSW 5.8 mph - N/A   Clear
11:15 AM 55.4 °F - 19.4 °F 25% 30.35 in 10.0 mi SW 8.1 mph - N/A   Clear
11:35 AM 55.4 °F - 19.4 °F 25% 30.35 in 10.0 mi SW 11.5 mph - N/A   Clear
11:55 AM 55.4 °F - 21.2 °F 26% 30.34 in 10.0 mi WSW 8.1 mph - N/A   Clear
12:15 PM 57.2 °F - 21.2 °F 25% 30.33 in 10.0 mi SSW 8.1 mph - N/A   Clear
12:35 PM 59.0 °F - 21.2 °F 23% 30.31 in 10.0 mi SW 8.1 mph - N/A   Clear
12:55 PM 59.0 °F - 19.4 °F 22% 30.29 in 10.0 mi SSW 9.2 mph - N/A   Clear
1:15 PM 60.8 °F - 19.4 °F 20% 30.28 in 10.0 mi WSW 6.9 mph - N/A   Clear
1:35 PM 60.8 °F - 17.6 °F 19% 30.27 in 10.0 mi SSW 8.1 mph - N/A   Clear
1:55 PM 60.8 °F - 17.6 °F 19% 30.27 in 10.0 mi South 8.1 mph - N/A   Clear
2:15 PM 60.8 °F - 19.4 °F 20% 30.26 in 10.0 mi SSW 10.4 mph - N/A   Clear
2:35 PM 62.6 °F - 17.6 °F 18% 30.25 in 10.0 mi SSW 6.9 mph - N/A   Clear
2:55 PM 62.6 °F - 17.6 °F 18% 30.25 in 10.0 mi SSW 8.1 mph - N/A   Clear
3:15 PM 62.6 °F - 17.6 °F 18% 30.25 in 10.0 mi SSW 10.4 mph - N/A   Clear
3:35 PM 62.6 °F - 19.4 °F 19% 30.25 in 10.0 mi SSW 9.2 mph - N/A   Clear
3:55 PM 62.6 °F - 21.2 °F 20% 30.25 in 10.0 mi South 8.1 mph - N/A   Clear
4:15 PM 60.8 °F - 23.0 °F 23% 30.25 in 10.0 mi South 5.8 mph - N/A   Clear
4:35 PM 60.8 °F - 24.8 °F 25% 30.25 in 10.0 mi South 4.6 mph - N/A   Clear
4:55 PM 59.0 °F - 26.6 °F 29% 30.25 in 10.0 mi South 4.6 mph - N/A   Clear
5:15 PM 59.0 °F - 26.6 °F 29% 30.26 in 10.0 mi South 3.5 mph - N/A   Clear
5:35 PM 55.4 °F - 26.6 °F 33% 30.26 in 10.0 mi South 4.6 mph - N/A   Clear
5:55 PM 55.4 °F - 26.6 °F 33% 30.26 in 10.0 mi South 4.6 mph - N/A   Clear
6:15 PM 53.6 °F - 26.6 °F 35% 30.26 in 10.0 mi South 4.6 mph - N/A   Clear
6:35 PM 53.6 °F - 24.8 °F 33% 30.26 in 10.0 mi SSW 4.6 mph - N/A   Clear
6:55 PM 51.8 °F - 26.6 °F 38% 30.26 in 10.0 mi South 3.5 mph - N/A   Clear
7:15 PM 50.0 °F - 26.6 °F 40% 30.26 in 10.0 mi South 4.6 mph - N/A   Clear
7:35 PM 51.8 °F - 26.6 °F 38% 30.26 in 10.0 mi South 3.5 mph - N/A   Clear
7:55 PM 51.8 °F - 26.6 °F 38% 30.25 in 10.0 mi SSE 4.6 mph - N/A   Clear
8:15 PM 50.0 °F - 28.4 °F 43% 30.25 in 10.0 mi SSE 4.6 mph - N/A   Clear
8:35 PM 50.0 °F - 28.4 °F 43% 30.26 in 10.0 mi South 4.6 mph - N/A   Clear
8:55 PM 50.0 °F - 28.4 °F 43% 30.26 in 10.0 mi South 5.8 mph - N/A   Clear
9:15 PM 50.0 °F - 28.4 °F 43% 30.26 in 10.0 mi South 4.6 mph - N/A   Clear
9:35 PM 50.0 °F - 30.2 °F 47% 30.25 in 10.0 mi South 5.8 mph - N/A   Clear
9:55 PM 50.0 °F - 30.2 °F 47% 30.26 in 10.0 mi South 4.6 mph - N/A   Clear
10:15 PM 48.2 °F - 30.2 °F 50% 30.26 in 10.0 mi South 4.6 mph - N/A   Clear
10:35 PM 48.2 °F - 30.2 °F 50% 30.26 in 10.0 mi Calm Calm - N/A   Clear
10:55 PM 46.4 °F - 32.0 °F 57% 30.26 in 10.0 mi Calm Calm - N/A   Clear
11:15 PM 44.6 °F - 32.0 °F 61% 30.26 in 10.0 mi Calm Calm - N/A   Clear
11:35 PM 44.6 °F 43.1 °F 32.0 °F 61% 30.26 in 10.0 mi SSW 3.5 mph - N/A   Clear
11:55 PM 44.6 °F 43.1 °F 32.0 °F 61% 30.26 in 10.0 mi SW 3.5 mph - N/A   Clear